Flag for Germany Weather past 2 weeks in Bad Oldesloe, Schleswig-Holstein, Germany

Now
52 °F

Sunny.


Feels Like: 49 °F
Forecast: 39 / 62 °F
Wind: 8 mph from Northeast

Location: Luebeck-Blankensee

Current Time: Apr 19, 2015 at 7:49:45 PM

Latest Report: Apr 19, 2015 at 7:20 PM


Visibility: 10 mi

Pressure: 30.24 "Hg

Humidity: 44%

Dew point: 30 °F

Location of Bad OldesloeLocation

Historic Weather in Bad Oldesloe — Graph

°F

Bad Oldesloe temperature yesterday

Maximum temperature yesterday: 55 °F (at 4:20 PM)
Minimum temperature yesterday: 34 °F (at 6:50 AM)
Average temperature yesterday: 49 °F

Past Weeks' High & Low Weather Summary

 TemperatureHumidityPressure
High70 °F (Apr 11, 1:20 PM)100% (Apr 5, 6:50 AM)30.54 "Hg (Apr 5, 6:50 AM)
Low28 °F (Apr 7, 6:50 AM)32% (Apr 5, 12:20 PM)29.83 "Hg (Apr 15, 3:20 PM)
Average50 °F64%30.20 "Hg
* Reported Apr 4 6:20 PM — Apr 19 6:50 PM, Bad Oldesloe, Weather by CustomWeather, © 2015

Note: Actual official high and low records may vary slightly from our data, if they occured in-between our weather recording intervals... More about our weather records

Advertising

Bad Oldesloe weather history for previous 24 hours

 ConditionsComfort  
Time TempWeatherWind HumidityBarometerVisibility
6:50 PM
Sun, Apr 19
54 °FSunny.9 mph44%30.24 "Hg10 mi
6:20 PM55 °FPassing clouds.8 mph44%30.24 "HgN/A
5:50 PM55 °FSunny.9 mph47%30.24 "Hg10 mi
5:20 PM55 °FPassing clouds.8 mph51%30.24 "HgN/A
4:50 PM55 °FSunny.5 mph47%30.24 "Hg10 mi
4:20 PM57 °FPassing clouds.7 mph48%30.24 "HgN/A
3:50 PM55 °FPassing clouds.6 mph51%30.24 "HgN/A
3:20 PM57 °FPassing clouds.2 mph51%30.24 "HgN/A
2:50 PM55 °FPassing clouds.6 mph59%30.24 "HgN/A
2:20 PM55 °FPassing clouds.5 mph55%30.24 "HgN/A
1:50 PM55 °FPassing clouds.2 mph55%30.24 "HgN/A
1:20 PM52 °FPassing clouds.6 mph58%30.24 "HgN/A
12:50 PM52 °FPassing clouds.5 mph58%30.24 "HgN/A
12:20 PM50 °FPassing clouds.5 mph62%30.24 "HgN/A
11:50 AM52 °FPassing clouds.5 mph58%30.21 "HgN/A
11:20 AM50 °FScattered clouds.5 mph62%30.24 "HgN/A
10:50 AM48 °FScattered clouds.2 mph66%30.21 "HgN/A
10:20 AM46 °FScattered clouds.1 mph66%30.21 "HgN/A
9:50 AM45 °FPartly sunny.2 mph71%30.21 "HgN/A
9:20 AM45 °FScattered clouds.2 mph71%30.21 "HgN/A
8:50 AM43 °FScattered clouds.2 mph81%30.21 "HgN/A
8:20 AM45 °FScattered clouds.3 mph76%30.21 "HgN/A
7:50 AM43 °FScattered clouds.3 mph87%30.18 "HgN/A
7:20 AM41 °FPartly sunny.5 mph87%30.18 "HgN/A
6:50 AM41 °FPassing clouds.2 mph87%30.18 "HgN/A
9:50 PM
Sat, Apr 18
46 °FPassing clouds.5 mph66%30.21 "HgN/A
9:20 PM45 °FPassing clouds.3 mph66%30.21 "HgN/A
8:50 PM48 °FSunny.2 mph54%30.21 "Hg10 mi
8:20 PM50 °FSunny.No wind50%30.21 "Hg10 mi
7:50 PM50 °FSunny.1 mph50%30.24 "Hg10 mi
7:20 PM52 °FSunny.3 mph50%30.24 "Hg10 mi
Weather by CustomWeather, © 2015

See weather overviewHow to use our weather pages